Woodworking Machinery Auction from Dance Floor Manufacturer

Lot #0105A: Central Machinery 16 Speed Drill Press

Bidding is closed.
High Bid:$95.00
NA
Bidding Ended: Thu, Nov 7  10:06:00 am PT
High Bidder: vacter55H
Bid Increment: $5.00
Starting Bid: $5.00
Item Location: North Highlands, CA 95660
Item has been viewed 576 times.

Central Machinery 16 Speed Drill Press

  • Model: 43389
  • 1 H.P.
  • Single Phase
  • RPM: 16 Spindle Speeds 200RPM to 3630RPM
  • Chuck Capacity: 1/8” – 5/8”
  • Spindle Taper: MT2
  • Chuck Taper: JT3
Bid Date Bid Amount Bidder
Nov 7, 2019 - 9:58:48 AM $95.00 ivacter55H
Nov 7, 2019 - 9:58:39 AM $90.00 iokiecharlie
Nov 7, 2019 - 9:58:40 AM $90.00 ivacter55H
Nov 7, 2019 - 9:58:12 AM $85.00 iokiecharlie
Nov 6, 2019 - 11:02:31 PM $80.00 ivacter55H
Nov 6, 2019 - 11:02:22 PM $75.00 idevala
Nov 6, 2019 - 11:02:23 PM $75.00 ivacter55H
Nov 6, 2019 - 10:18:22 PM $65.00 idevala
Nov 6, 2019 - 9:56:58 PM $60.00 ivacter55H
Nov 6, 2019 - 8:35:45 PM $55.00 ipgrecdom
Nov 6, 2019 - 8:35:45 PM $51.00 idavegokart
Nov 6, 2019 - 1:05:55 PM $50.00 idavegokart
Nov 6, 2019 - 6:19:05 AM $45.00 ipgrecdom
Nov 6, 2019 - 12:23:54 AM $40.00 ivacter55H
Nov 6, 2019 - 12:23:54 AM $36.00 idavegokart
Nov 5, 2019 - 11:34:42 AM $35.00 idavegokart
Nov 5, 2019 - 11:34:42 AM $30.00 icarmelish2
Nov 5, 2019 - 11:05:18 AM $25.00 idavegokart
Nov 5, 2019 - 10:36:17 AM $20.00 iokiecharlie
Nov 5, 2019 - 10:36:17 AM $15.99 ifireinthesky
Nov 5, 2019 - 10:06:51 AM $5.00 iokiecharlie
Click on any picture to see a larger image.